Time,TemperatureF,DewpointF,PressureIn,WindDirection,WindDirectionDegrees,WindSpeedMPH,WindSpeedGustMPH,Humidity,HourlyPrecipIn,Conditions,Clouds,dailyrainin,SolarRadiationWatts/m^2,SoftwareType,DateUTC
2013-02-21 00:00:00,25.9,16.7,29.90,WSW,244,6.0,23.0,68,0.00,,,0.00,0.0,meteohub,2013-02-21 05:00:00,
2013-02-21 00:01:00,25.9,16.7,29.90,West,267,4.0,23.0,68,0.00,,,0.00,0.0,meteohub,2013-02-21 05:01:00,
2013-02-21 00:02:00,25.9,16.7,29.90,WNW,294,4.0,23.0,68,0.00,,,0.00,0.0,meteohub,2013-02-21 05:02:00,
2013-02-21 00:07:00,25.9,16.7,29.90,NW,317,4.0,23.0,68,0.00,,,0.00,0.0,meteohub,2013-02-21 05:07:00,
2013-02-21 00:12:00,25.9,16.7,29.90,WSW,252,2.0,15.0,68,0.00,,,0.00,0.0,meteohub,2013-02-21 05:12:00,
2013-02-21 00:17:00,25.7,16.5,29.90,NW,312,1.0,15.0,68,0.00,,,0.00,0.0,meteohub,2013-02-21 05:17:00,
2013-02-21 00:22:00,25.7,16.5,29.91,West,261,7.0,15.0,68,0.00,,,0.00,0.0,meteohub,2013-02-21 05:22:00,
2013-02-21 00:27:00,25.7,16.5,29.91,West,281,3.0,15.0,68,0.00,,,0.00,0.0,meteohub,2013-02-21 05:27:00,
2013-02-21 00:32:00,25.5,16.7,29.91,North,0,3.0,15.0,69,0.00,,,0.00,0.0,meteohub,2013-02-21 05:32:00,
2013-02-21 00:37:00,25.5,16.7,29.91,NW,305,4.0,17.0,69,0.00,,,0.00,0.0,meteohub,2013-02-21 05:37:00,
2013-02-21 00:42:00,25.3,16.3,29.91,NW,314,13.0,17.0,68,0.00,,,0.00,0.0,meteohub,2013-02-21 05:42:00,
2013-02-21 00:47:00,25.3,16.5,29.90,NW,311,2.0,22.0,69,0.00,,,0.00,0.0,meteohub,2013-02-21 05:47:00,
2013-02-21 00:52:00,25.3,16.5,29.90,West,279,1.0,22.0,69,0.00,,,0.00,0.0,meteohub,2013-02-21 05:52:00,
2013-02-21 00:57:00,25.2,16.3,29.90,West,267,4.0,13.0,69,0.00,,,0.00,0.0,meteohub,2013-02-21 05:57:00,
2013-02-21 01:02:00,25.0,16.5,29.91,West,259,4.0,13.0,70,0.00,,,0.00,0.0,meteohub,2013-02-21 06:02:00,
2013-02-21 01:07:00,25.0,16.5,29.90,WNW,288,2.0,18.0,70,0.00,,,0.00,0.0,meteohub,2013-02-21 06:07:00,
2013-02-21 01:13:00,24.8,16.3,29.89,NW,306,2.0,18.0,70,0.00,,,0.00,0.0,meteohub,2013-02-21 06:13:00,
2013-02-21 01:18:00,24.8,16.3,29.90,West,263,2.0,12.0,70,0.00,,,0.00,0.0,meteohub,2013-02-21 06:18:00,
2013-02-21 01:23:00,24.6,16.2,29.90,West,265,4.0,12.0,70,0.00,,,0.00,0.0,meteohub,2013-02-21 06:23:00,
2013-02-21 01:29:00,24.6,16.2,29.90,WNW,303,3.0,13.0,70,0.00,,,0.00,0.0,meteohub,2013-02-21 06:29:00,
2013-02-21 01:34:00,24.6,16.2,29.90,WSW,252,12.0,13.0,70,0.00,,,0.00,0.0,meteohub,2013-02-21 06:34:00,
2013-02-21 01:39:00,24.6,16.0,29.90,WNW,290,3.0,20.0,69,0.00,,,0.00,0.0,meteohub,2013-02-21 06:39:00,
2013-02-21 01:44:00,24.6,16.0,29.90,NW,322,9.0,20.0,69,0.00,,,0.00,0.0,meteohub,2013-02-21 06:44:00,
2013-02-21 01:50:00,24.6,15.6,29.90,WSW,251,2.0,20.0,68,0.00,,,0.00,0.0,meteohub,2013-02-21 06:50:00,
2013-02-21 01:55:00,24.6,15.6,29.90,WSW,240,9.0,13.0,68,0.00,,,0.00,0.0,meteohub,2013-02-21 06:55:00,
2013-02-21 02:00:00,24.6,15.6,29.90,SW,232,1.0,13.0,68,0.00,,,0.00,0.0,meteohub,2013-02-21 07:00:00,
2013-02-21 02:06:00,24.6,15.6,29.90,West,259,16.0,16.0,68,0.00,,,0.00,0.0,meteohub,2013-02-21 07:06:00,
2013-02-21 02:11:00,24.6,15.3,29.90,West,270,6.0,18.0,67,0.00,,,0.00,0.0,meteohub,2013-02-21 07:11:00,
2013-02-21 02:16:00,24.6,15.3,29.90,WNW,298,1.0,18.0,67,0.00,,,0.00,0.0,meteohub,2013-02-21 07:16:00,
2013-02-21 02:22:00,24.6,15.6,29.91,WSW,256,7.0,18.0,68,0.00,,,0.00,0.0,meteohub,2013-02-21 07:22:00,
2013-02-21 02:27:00,24.6,15.6,29.91,WNW,286,2.0,15.0,68,0.00,,,0.00,0.0,meteohub,2013-02-21 07:27:00,
2013-02-21 02:32:00,24.4,15.4,29.91,West,273,0.0,15.0,68,0.00,,,0.00,0.0,meteohub,2013-02-21 07:32:00,
2013-02-21 02:37:00,24.4,15.4,29.90,NW,312,5.0,15.0,68,0.00,,,0.00,0.0,meteohub,2013-02-21 07:37:00,
2013-02-21 02:42:00,24.4,15.4,29.90,NNW,330,5.0,15.0,68,0.00,,,0.00,0.0,meteohub,2013-02-21 07:42:00,
2013-02-21 02:47:00,24.4,15.4,29.90,WNW,292,7.0,16.0,68,0.00,,,0.00,0.0,meteohub,2013-02-21 07:47:00,
2013-02-21 02:52:00,24.4,15.8,29.90,WNW,294,0.0,16.0,69,0.00,,,0.00,0.0,meteohub,2013-02-21 07:52:00,
2013-02-21 02:57:00,24.4,15.8,29.90,West,277,3.0,16.0,69,0.00,,,0.00,0.0,meteohub,2013-02-21 07:57:00,
2013-02-21 03:02:00,24.4,15.8,29.89,WNW,300,7.0,16.0,69,0.00,,,0.00,0.0,meteohub,2013-02-21 08:02:00,
2013-02-21 03:07:00,24.3,16.0,29.89,WNW,301,6.0,16.0,70,0.00,,,0.00,0.0,meteohub,2013-02-21 08:07:00,
2013-02-21 03:12:00,24.3,16.0,29.89,West,265,7.0,14.0,70,0.00,,,0.00,0.0,meteohub,2013-02-21 08:12:00,
2013-02-21 03:17:00,24.3,16.0,29.89,WNW,299,9.0,14.0,70,0.00,,,0.00,0.0,meteohub,2013-02-21 08:17:00,
2013-02-21 03:22:00,24.3,16.2,29.89,WNW,300,5.0,14.0,71,0.00,,,0.00,0.0,meteohub,2013-02-21 08:22:00,
2013-02-21 03:27:00,24.1,16.0,29.89,NNE,20,3.0,16.0,71,0.00,,,0.00,0.0,meteohub,2013-02-21 08:27:00,
2013-02-21 03:32:00,24.1,16.3,29.89,NW,307,5.0,16.0,72,0.00,,,0.00,0.0,meteohub,2013-02-21 08:32:00,
2013-02-21 03:37:00,23.9,16.2,29.88,NW,326,3.0,16.0,72,0.00,,,0.00,0.0,meteohub,2013-02-21 08:37:00,
2013-02-21 03:42:00,23.7,16.0,29.88,WNW,286,12.0,16.0,72,0.00,,,0.00,0.0,meteohub,2013-02-21 08:42:00,
2013-02-21 03:47:00,23.7,16.3,29.88,West,263,2.0,17.0,73,0.00,,,0.00,0.0,meteohub,2013-02-21 08:47:00,
2013-02-21 03:52:00,23.7,16.3,29.88,NW,315,7.0,17.0,73,0.00,,,0.00,0.0,meteohub,2013-02-21 08:52:00,
2013-02-21 03:57:00,23.5,16.5,29.88,NE,53,3.0,17.0,74,0.00,,,0.00,0.0,meteohub,2013-02-21 08:57:00,
2013-02-21 04:02:00,23.5,16.5,29.89,WSW,248,2.0,17.0,74,0.00,,,0.00,0.0,meteohub,2013-02-21 09:02:00,
2013-02-21 04:07:00,23.5,16.7,29.89,WNW,288,2.0,17.0,75,0.00,,,0.00,0.0,meteohub,2013-02-21 09:07:00,
2013-02-21 04:12:00,23.4,16.7,29.89,WNW,300,1.0,15.0,75,0.00,,,0.00,0.0,meteohub,2013-02-21 09:12:00,
2013-02-21 04:17:00,23.4,16.7,29.89,NE,44,6.0,15.0,75,0.00,,,0.00,0.0,meteohub,2013-02-21 09:17:00,
2013-02-21 04:22:00,23.4,16.7,29.89,West,281,0.0,14.0,75,0.00,,,0.00,0.0,meteohub,2013-02-21 09:22:00,
2013-02-21 04:27:00,23.4,16.9,29.89,WSW,249,8.0,19.0,76,0.00,,,0.00,0.0,meteohub,2013-02-21 09:27:00,
2013-02-21 04:32:00,23.4,16.9,29.89,WNW,284,5.0,19.0,76,0.00,,,0.00,0.0,meteohub,2013-02-21 09:32:00,
2013-02-21 04:37:00,23.2,17.4,29.89,WNW,297,4.0,19.0,78,0.00,,,0.00,0.0,meteohub,2013-02-21 09:37:00,
2013-02-21 04:42:00,22.8,17.2,29.89,NW,325,4.0,19.0,79,0.00,,,0.00,0.0,meteohub,2013-02-21 09:42:00,
2013-02-21 04:47:00,22.5,17.2,29.89,WNW,289,6.0,16.0,80,0.00,,,0.00,0.0,meteohub,2013-02-21 09:47:00,
2013-02-21 04:52:00,22.3,17.1,29.89,WNW,291,2.0,16.0,80,0.00,,,0.00,0.0,meteohub,2013-02-21 09:52:00,
2013-02-21 04:57:00,22.1,16.9,29.89,WNW,298,9.0,16.0,80,0.00,,,0.00,0.0,meteohub,2013-02-21 09:57:00,
2013-02-21 05:02:00,21.9,16.7,29.89,West,270,2.0,15.0,80,0.00,,,0.00,0.0,meteohub,2013-02-21 10:02:00,
2013-02-21 05:07:00,21.9,16.3,29.89,West,271,0.0,15.0,79,0.00,,,0.00,0.0,meteohub,2013-02-21 10:07:00,
2013-02-21 05:12:00,21.9,16.3,29.90,NW,304,0.0,15.0,79,0.00,,,0.00,0.0,meteohub,2013-02-21 10:12:00,
2013-02-21 05:17:00,21.9,16.3,29.91,West,259,2.0,12.0,79,0.00,,,0.00,0.0,meteohub,2013-02-21 10:17:00,
2013-02-21 05:22:00,21.9,16.3,29.91,WNW,293,11.0,12.0,79,0.00,,,0.00,0.0,meteohub,2013-02-21 10:22:00,
2013-02-21 05:27:00,21.9,16.3,29.91,NW,306,2.0,12.0,79,0.00,,,0.00,0.0,meteohub,2013-02-21 10:27:00,
2013-02-21 05:32:00,21.9,16.3,29.91,WNW,291,0.0,13.0,79,0.00,,,0.00,0.0,meteohub,2013-02-21 10:32:00,
2013-02-21 05:37:00,21.9,16.2,29.91,NNW,333,3.0,13.0,78,0.00,,,0.00,0.0,meteohub,2013-02-21 10:37:00,
2013-02-21 05:42:00,21.9,16.2,29.91,WNW,287,2.0,12.0,78,0.00,,,0.00,0.0,meteohub,2013-02-21 10:42:00,
2013-02-21 05:47:00,21.9,15.8,29.91,NW,309,10.0,12.0,77,0.00,,,0.00,0.0,meteohub,2013-02-21 10:47:00,
2013-02-21 05:52:00,21.9,15.4,29.91,WNW,294,1.0,12.0,76,0.00,,,0.00,0.0,meteohub,2013-02-21 10:52:00,
2013-02-21 05:57:00,21.9,15.4,29.91,NW,304,1.0,16.0,76,0.00,,,0.00,0.0,meteohub,2013-02-21 10:57:00,
2013-02-21 06:02:00,21.9,15.3,29.92,North,355,4.0,16.0,75,0.00,,,0.00,0.0,meteohub,2013-02-21 11:02:00,
2013-02-21 06:07:00,21.7,15.1,29.92,WNW,285,8.0,16.0,75,0.00,,,0.00,0.0,meteohub,2013-02-21 11:07:00,
2013-02-21 06:12:00,21.7,14.7,29.92,ESE,119,10.0,16.0,74,0.00,,,0.00,0.0,meteohub,2013-02-21 11:12:00,
2013-02-21 06:17:00,21.7,14.4,29.92,NW,310,15.0,17.0,73,0.00,,,0.00,0.0,meteohub,2013-02-21 11:17:00,
2013-02-21 06:22:00,21.6,14.2,29.92,WSW,248,9.0,17.0,73,0.00,,,0.00,0.0,meteohub,2013-02-21 11:22:00,
2013-02-21 06:27:00,21.6,14.0,29.92,NNW,327,7.0,17.0,72,0.00,,,0.00,0.0,meteohub,2013-02-21 11:27:00,
2013-02-21 06:32:00,21.6,13.6,29.92,West,273,2.0,17.0,71,0.00,,,0.00,0.0,meteohub,2013-02-21 11:32:00,
2013-02-21 06:37:00,21.4,13.1,29.92,WNW,284,7.0,21.0,70,0.00,,,0.00,0.0,meteohub,2013-02-21 11:37:00,
2013-02-21 06:43:00,21.2,12.9,29.91,North,9,2.0,21.0,70,0.00,,,0.00,0.0,meteohub,2013-02-21 11:43:00,
2013-02-21 06:48:00,21.0,12.7,29.92,WNW,291,11.0,21.0,70,0.00,,,0.00,5.0,meteohub,2013-02-21 11:48:00,
2013-02-21 06:53:00,20.8,12.6,29.92,WNW,297,7.0,19.0,70,0.00,,,0.00,5.0,meteohub,2013-02-21 11:53:00,
2013-02-21 06:59:00,20.8,12.2,29.93,NW,304,7.0,19.0,69,0.00,,,0.00,7.0,meteohub,2013-02-21 11:59:00,
2013-02-21 07:04:00,20.8,12.2,29.94,SE,138,6.0,19.0,69,0.00,,,0.00,12.0,meteohub,2013-02-21 12:04:00,
2013-02-21 07:09:00,20.7,12.0,29.95,WNW,300,2.0,19.0,69,0.00,,,0.00,14.0,meteohub,2013-02-21 12:09:00,
2013-02-21 07:15:00,20.7,11.8,29.95,WNW,290,9.0,23.0,68,0.00,,,0.00,14.0,meteohub,2013-02-21 12:15:00,
2013-02-21 07:20:00,20.7,11.8,29.95,WSW,254,11.0,23.0,68,0.00,,,0.00,14.0,meteohub,2013-02-21 12:20:00,
2013-02-21 07:25:00,20.5,11.7,29.96,West,269,2.0,17.0,68,0.00,,,0.00,16.0,meteohub,2013-02-21 12:25:00,
2013-02-21 07:30:00,20.3,11.5,29.96,West,280,3.0,17.0,68,0.00,,,0.00,18.0,meteohub,2013-02-21 12:30:00,
2013-02-21 07:36:00,20.1,11.3,29.96,NE,44,6.0,17.0,68,0.00,,,0.00,23.0,meteohub,2013-02-21 12:36:00,
2013-02-21 07:41:00,20.1,11.3,29.97,NW,304,9.0,20.0,68,0.00,,,0.00,32.0,meteohub,2013-02-21 12:41:00,
2013-02-21 07:46:00,20.1,11.3,29.98,SSW,201,9.0,20.0,68,0.00,,,0.00,58.0,meteohub,2013-02-21 12:46:00,
2013-02-21 07:52:00,20.1,11.7,29.98,WNW,285,2.0,13.0,69,0.00,,,0.00,60.0,meteohub,2013-02-21 12:52:00,
2013-02-21 07:57:00,20.1,11.7,29.98,WNW,294,0.0,13.0,69,0.00,,,0.00,63.0,meteohub,2013-02-21 12:57:00,
2013-02-21 08:02:00,20.1,11.8,29.98,NW,307,6.0,20.0,70,0.00,,,0.00,58.0,meteohub,2013-02-21 13:02:00,
2013-02-21 08:07:00,20.1,11.8,29.97,North,5,1.0,20.0,70,0.00,,,0.00,63.0,meteohub,2013-02-21 13:07:00,
2013-02-21 08:12:00,19.9,11.7,29.98,NW,317,10.0,20.0,70,0.00,,,0.00,77.0,meteohub,2013-02-21 13:12:00,
2013-02-21 08:17:00,20.1,11.8,29.98,West,281,2.0,20.0,70,0.00,,,0.00,76.0,meteohub,2013-02-21 13:17:00,
2013-02-21 08:22:00,20.1,11.8,29.98,North,355,2.0,15.0,70,0.00,,,0.00,144.0,meteohub,2013-02-21 13:22:00,
2013-02-21 08:27:00,20.5,12.2,29.99,NW,325,1.0,15.0,70,0.00,,,0.00,149.0,meteohub,2013-02-21 13:27:00,
2013-02-21 08:32:00,20.7,12.7,29.99,NW,311,1.0,12.0,71,0.00,,,0.00,118.0,meteohub,2013-02-21 13:32:00,
2013-02-21 08:37:00,20.7,12.7,29.99,West,275,3.0,12.0,71,0.00,,,0.00,130.0,meteohub,2013-02-21 13:37:00,
2013-02-21 08:42:00,20.7,12.4,30.00,NNW,336,11.0,13.0,70,0.00,,,0.00,148.0,meteohub,2013-02-21 13:42:00,
2013-02-21 08:47:00,20.5,12.0,30.00,West,263,4.0,13.0,69,0.00,,,0.00,128.0,meteohub,2013-02-21 13:47:00,
2013-02-21 08:52:00,20.3,11.5,30.00,NW,319,7.0,13.0,68,0.00,,,0.00,116.0,meteohub,2013-02-21 13:52:00,
2013-02-21 08:57:00,19.9,10.8,30.00,WNW,300,9.0,26.0,67,0.00,,,0.00,156.0,meteohub,2013-02-21 13:57:00,
2013-02-21 09:02:00,19.8,10.2,30.01,WNW,283,10.0,26.0,66,0.00,,,0.00,190.0,meteohub,2013-02-21 14:02:00,
2013-02-21 09:07:00,19.6,9.7,30.01,NW,308,9.0,26.0,65,0.00,,,0.00,211.0,meteohub,2013-02-21 14:07:00,
2013-02-21 09:12:00,19.6,9.7,30.01,NW,305,9.0,27.0,65,0.00,,,0.00,163.0,meteohub,2013-02-21 14:12:00,
2013-02-21 09:17:00,19.8,9.9,30.00,West,267,9.0,27.0,65,0.00,,,0.00,181.0,meteohub,2013-02-21 14:17:00,
2013-02-21 09:22:00,19.8,9.9,30.01,NE,39,3.0,27.0,65,0.00,,,0.00,162.0,meteohub,2013-02-21 14:22:00,
2013-02-21 09:28:00,19.6,9.3,30.00,NW,304,16.0,27.0,64,0.00,,,0.00,179.0,meteohub,2013-02-21 14:28:00,
2013-02-21 09:33:00,19.4,9.5,30.01,North,5,14.0,23.0,65,0.00,,,0.00,232.0,meteohub,2013-02-21 14:33:00,
2013-02-21 09:38:00,19.4,9.5,30.01,WNW,294,11.0,23.0,65,0.00,,,0.00,114.0,meteohub,2013-02-21 14:38:00,
2013-02-21 09:43:00,19.4,9.9,30.02,NW,304,7.0,25.0,66,0.00,,,0.00,160.0,meteohub,2013-02-21 14:43:00,
2013-02-21 09:49:00,19.2,9.7,30.02,NW,325,12.0,25.0,66,0.00,,,0.00,174.0,meteohub,2013-02-21 14:49:00,
2013-02-21 09:54:00,19.2,9.7,30.03,NNE,25,2.0,25.0,66,0.00,,,0.00,156.0,meteohub,2013-02-21 14:54:00,
2013-02-21 09:59:00,19.6,10.4,30.03,WNW,287,11.0,19.0,67,0.00,,,0.00,202.0,meteohub,2013-02-21 14:59:00,
2013-02-21 10:05:00,19.6,10.4,30.03,NNE,30,9.0,19.0,67,0.00,,,0.00,279.0,meteohub,2013-02-21 15:05:00,
2013-02-21 10:10:00,19.6,10.4,30.03,West,265,6.0,19.0,67,0.00,,,0.00,218.0,meteohub,2013-02-21 15:10:00,
2013-02-21 10:15:00,19.6,10.4,30.04,North,5,7.0,23.0,67,0.00,,,0.00,241.0,meteohub,2013-02-21 15:15:00,
2013-02-21 10:21:00,19.2,10.0,30.04,West,281,12.0,23.0,67,0.00,,,0.00,232.0,meteohub,2013-02-21 15:21:00,
2013-02-21 10:26:00,18.9,9.7,30.04,NE,41,14.0,23.0,67,0.00,,,0.00,209.0,meteohub,2013-02-21 15:26:00,
2013-02-21 10:31:00,19.0,10.2,30.05,WSW,251,0.0,21.0,68,0.00,,,0.00,236.0,meteohub,2013-02-21 15:31:00,
2013-02-21 10:37:00,19.0,9.9,30.04,NW,312,5.0,21.0,67,0.00,,,0.00,288.0,meteohub,2013-02-21 15:37:00,
2013-02-21 10:42:00,19.0,9.9,30.05,West,277,21.0,24.0,67,0.00,,,0.00,206.0,meteohub,2013-02-21 15:42:00,
2013-02-21 10:47:00,19.0,9.9,30.05,West,269,3.0,24.0,67,0.00,,,0.00,283.0,meteohub,2013-02-21 15:47:00,
2013-02-21 10:52:00,19.0,9.9,30.06,WNW,293,6.0,24.0,67,0.00,,,0.00,278.0,meteohub,2013-02-21 15:52:00,
2013-02-21 10:57:00,19.2,10.4,30.06,West,261,2.0,24.0,68,0.00,,,0.00,234.0,meteohub,2013-02-21 15:57:00,
2013-02-21 11:02:00,19.2,10.0,30.06,NW,322,10.0,24.0,67,0.00,,,0.00,281.0,meteohub,2013-02-21 16:02:00,
2013-02-21 11:07:00,19.2,10.0,30.06,NW,309,5.0,24.0,67,0.00,,,0.00,221.0,meteohub,2013-02-21 16:07:00,
2013-02-21 11:12:00,19.0,9.9,30.07,West,275,4.0,20.0,67,0.00,,,0.00,204.0,meteohub,2013-02-21 16:12:00,
2013-02-21 11:17:00,19.0,9.9,30.07,WNW,295,9.0,20.0,67,0.00,,,0.00,207.0,meteohub,2013-02-21 16:17:00,
2013-02-21 11:22:00,19.0,9.9,30.07,NW,304,4.0,20.0,67,0.00,,,0.00,253.0,meteohub,2013-02-21 16:22:00,
2013-02-21 11:27:00,19.2,10.0,30.06,NW,304,6.0,20.0,67,0.00,,,0.00,229.0,meteohub,2013-02-21 16:27:00,
2013-02-21 11:32:00,19.2,10.0,30.06,NW,319,10.0,23.0,67,0.00,,,0.00,230.0,meteohub,2013-02-21 16:32:00,
2013-02-21 11:37:00,19.2,10.0,30.06,WNW,295,15.0,23.0,67,0.00,,,0.00,243.0,meteohub,2013-02-21 16:37:00,
2013-02-21 11:42:00,19.0,9.9,30.06,NW,323,4.0,22.0,67,0.00,,,0.00,236.0,meteohub,2013-02-21 16:42:00,
2013-02-21 11:47:00,19.0,9.9,30.06,NW,326,4.0,22.0,67,0.00,,,0.00,274.0,meteohub,2013-02-21 16:47:00,
2013-02-21 11:52:00,19.0,9.5,30.06,WNW,294,10.0,22.0,66,0.00,,,0.00,269.0,meteohub,2013-02-21 16:52:00,
2013-02-21 11:57:00,19.0,9.5,30.06,WNW,302,11.0,22.0,66,0.00,,,0.00,271.0,meteohub,2013-02-21 16:57:00,
2013-02-21 12:02:00,19.0,9.9,30.06,NW,320,18.0,20.0,67,0.00,,,0.00,202.0,meteohub,2013-02-21 17:02:00,
2013-02-21 12:08:00,19.0,9.5,30.06,NNW,327,9.0,20.0,66,0.00,,,0.00,466.0,meteohub,2013-02-21 17:08:00,
2013-02-21 12:13:00,19.4,9.9,30.06,WNW,294,11.0,21.0,66,0.00,,,0.00,155.0,meteohub,2013-02-21 17:13:00,
2013-02-21 12:19:00,19.2,9.7,30.07,WNW,302,5.0,21.0,66,0.00,,,0.00,234.0,meteohub,2013-02-21 17:19:00,
2013-02-21 12:24:00,19.2,9.3,30.06,NW,309,10.0,23.0,65,0.00,,,0.00,130.0,meteohub,2013-02-21 17:24:00,
2013-02-21 12:29:00,19.2,9.3,30.06,NW,311,2.0,23.0,65,0.00,,,0.00,114.0,meteohub,2013-02-21 17:29:00,
2013-02-21 12:34:00,19.2,9.3,30.07,WNW,290,12.0,23.0,65,0.00,,,0.00,160.0,meteohub,2013-02-21 17:34:00,
2013-02-21 12:40:00,19.4,9.5,30.06,NW,315,4.0,23.0,65,0.00,,,0.00,230.0,meteohub,2013-02-21 17:40:00,
2013-02-21 12:45:00,19.8,10.2,30.06,North,0,4.0,23.0,66,0.00,,,0.00,292.0,meteohub,2013-02-21 17:45:00,
2013-02-21 12:50:00,19.9,10.0,30.07,WNW,283,4.0,23.0,65,0.00,,,0.00,156.0,meteohub,2013-02-21 17:50:00,
2013-02-21 12:56:00,20.1,10.2,30.07,WNW,299,7.0,16.0,65,0.00,,,0.00,139.0,meteohub,2013-02-21 17:56:00,
2013-02-21 13:01:00,19.9,10.0,30.07,WNW,296,5.0,16.0,65,0.00,,,0.00,185.0,meteohub,2013-02-21 18:01:00,
2013-02-21 13:06:00,20.1,10.2,30.07,North,355,10.0,16.0,65,0.00,,,0.00,165.0,meteohub,2013-02-21 18:06:00,
2013-02-21 13:12:00,20.1,10.2,30.07,NNW,340,3.0,17.0,65,0.00,,,0.00,100.0,meteohub,2013-02-21 18:12:00,
2013-02-21 13:17:00,19.9,10.0,30.06,NW,307,9.0,17.0,65,0.00,,,0.00,181.0,meteohub,2013-02-21 18:17:00,
2013-02-21 13:22:00,19.9,10.0,30.06,NW,315,2.0,22.0,65,0.00,,,0.00,83.0,meteohub,2013-02-21 18:22:00,
2013-02-21 13:27:00,19.8,10.2,30.07,West,275,7.0,23.0,66,0.00,,,0.00,125.0,meteohub,2013-02-21 18:27:00,
2013-02-21 13:32:00,19.8,9.9,30.07,NNE,24,7.0,23.0,65,0.00,,,0.00,146.0,meteohub,2013-02-21 18:32:00,
2013-02-21 13:37:00,19.9,10.0,30.07,NW,323,10.0,23.0,65,0.00,,,0.00,151.0,meteohub,2013-02-21 18:37:00,
2013-02-21 13:42:00,20.1,10.2,30.07,WNW,290,9.0,23.0,65,0.00,,,0.00,132.0,meteohub,2013-02-21 18:42:00,
2013-02-21 13:47:00,20.7,10.8,30.07,NW,323,5.0,21.0,65,0.00,,,0.00,114.0,meteohub,2013-02-21 18:47:00,
2013-02-21 13:52:00,21.0,11.1,30.07,NW,309,5.0,21.0,65,0.00,,,0.00,524.0,meteohub,2013-02-21 18:52:00,
2013-02-21 13:57:00,21.2,10.6,30.07,WNW,302,15.0,21.0,63,0.00,,,0.00,512.0,meteohub,2013-02-21 18:57:00,
2013-02-21 14:02:00,21.4,10.8,30.07,West,273,11.0,21.0,63,0.00,,,0.00,527.0,meteohub,2013-02-21 19:02:00,
2013-02-21 14:07:00,21.7,11.5,30.07,WNW,288,6.0,21.0,64,0.00,,,0.00,515.0,meteohub,2013-02-21 19:07:00,
2013-02-21 14:12:00,21.9,11.3,30.07,NW,313,9.0,23.0,63,0.00,,,0.00,503.0,meteohub,2013-02-21 19:12:00,
2013-02-21 14:17:00,22.3,11.7,30.08,NW,304,10.0,23.0,63,0.00,,,0.00,492.0,meteohub,2013-02-21 19:17:00,
2013-02-21 14:22:00,22.1,11.1,30.08,WNW,288,9.0,23.0,62,0.00,,,0.00,485.0,meteohub,2013-02-21 19:22:00,
2013-02-21 14:27:00,22.3,11.7,30.08,NW,320,16.0,24.0,63,0.00,,,0.00,480.0,meteohub,2013-02-21 19:27:00,
2013-02-21 14:32:00,22.3,11.3,30.08,NW,314,7.0,24.0,62,0.00,,,0.00,475.0,meteohub,2013-02-21 19:32:00,
2013-02-21 14:37:00,22.3,11.3,30.08,NNW,327,10.0,24.0,62,0.00,,,0.00,541.0,meteohub,2013-02-21 19:37:00,
2013-02-21 14:42:00,22.5,11.5,30.09,WNW,298,6.0,24.0,62,0.00,,,0.00,454.0,meteohub,2013-02-21 19:42:00,
2013-02-21 14:48:00,22.5,11.5,30.09,NW,312,8.0,24.0,62,0.00,,,0.00,415.0,meteohub,2013-02-21 19:48:00,
2013-02-21 14:53:00,22.5,11.1,30.09,NW,320,10.0,24.0,61,0.00,,,0.00,422.0,meteohub,2013-02-21 19:53:00,
2013-02-21 14:58:00,22.5,11.1,30.09,NW,317,6.0,23.0,61,0.00,,,0.00,417.0,meteohub,2013-02-21 19:58:00,
2013-02-21 15:04:00,22.5,11.1,30.09,NW,325,11.0,23.0,61,0.00,,,0.00,371.0,meteohub,2013-02-21 20:04:00,
2013-02-21 15:09:00,22.5,11.5,30.09,WNW,298,10.0,26.0,62,0.00,,,0.00,396.0,meteohub,2013-02-21 20:09:00,
2013-02-21 15:14:00,22.6,12.0,30.09,WNW,291,5.0,26.0,63,0.00,,,0.00,362.0,meteohub,2013-02-21 20:14:00,
2013-02-21 15:20:00,22.8,11.8,30.10,NNW,330,6.0,26.0,62,0.00,,,0.00,345.0,meteohub,2013-02-21 20:20:00,
2013-02-21 15:25:00,22.8,11.8,30.10,West,272,2.0,26.0,62,0.00,,,0.00,334.0,meteohub,2013-02-21 20:25:00,
2013-02-21 15:30:00,23.0,11.8,30.10,NW,313,4.0,18.0,62,0.00,,,0.00,316.0,meteohub,2013-02-21 20:30:00,
2013-02-21 15:36:00,22.8,11.3,30.11,NNW,328,6.0,23.0,61,0.00,,,0.00,304.0,meteohub,2013-02-21 20:36:00,
2013-02-21 15:41:00,22.6,11.3,30.11,WSW,248,10.0,23.0,61,0.00,,,0.00,285.0,meteohub,2013-02-21 20:41:00,
2013-02-21 15:46:00,22.5,11.1,30.11,WNW,292,4.0,23.0,61,0.00,,,0.00,264.0,meteohub,2013-02-21 20:46:00,
2013-02-21 15:52:00,22.5,11.5,30.12,NNW,330,8.0,23.0,62,0.00,,,0.00,248.0,meteohub,2013-02-21 20:52:00,
2013-02-21 15:57:00,22.5,11.5,30.12,WNW,296,14.0,22.0,62,0.00,,,0.00,227.0,meteohub,2013-02-21 20:57:00,
2013-02-21 16:02:00,22.3,11.3,30.12,West,265,10.0,22.0,62,0.00,,,0.00,209.0,meteohub,2013-02-21 21:02:00,
2013-02-21 16:07:00,22.1,11.1,30.13,West,277,5.0,22.0,62,0.00,,,0.00,192.0,meteohub,2013-02-21 21:07:00,
2013-02-21 16:12:00,22.1,11.1,30.13,WSW,244,6.0,22.0,62,0.00,,,0.00,176.0,meteohub,2013-02-21 21:12:00,
2013-02-21 16:17:00,22.3,11.3,30.14,WNW,291,9.0,22.0,62,0.00,,,0.00,155.0,meteohub,2013-02-21 21:17:00,
2013-02-21 16:22:00,22.3,11.7,30.14,West,280,7.0,22.0,63,0.00,,,0.00,72.0,meteohub,2013-02-21 21:22:00,
2013-02-21 16:28:00,21.9,10.9,30.14,NW,317,10.0,18.0,62,0.00,,,0.00,76.0,meteohub,2013-02-21 21:28:00,
2013-02-21 16:33:00,21.7,11.1,30.14,North,355,5.0,18.0,63,0.00,,,0.00,67.0,meteohub,2013-02-21 21:33:00,
2013-02-21 16:38:00,21.6,10.9,30.14,West,261,10.0,17.0,63,0.00,,,0.00,39.0,meteohub,2013-02-21 21:38:00,
2013-02-21 16:43:00,21.4,11.1,30.15,North,355,1.0,17.0,64,0.00,,,0.00,35.0,meteohub,2013-02-21 21:43:00,
2013-02-21 16:49:00,21.2,11.3,30.15,WNW,298,3.0,15.0,65,0.00,,,0.00,42.0,meteohub,2013-02-21 21:49:00,
2013-02-21 16:54:00,21.0,11.1,30.15,WNW,299,9.0,15.0,65,0.00,,,0.00,23.0,meteohub,2013-02-21 21:54:00,
2013-02-21 16:59:00,21.0,11.1,30.16,NNW,342,2.0,15.0,65,0.00,,,0.00,21.0,meteohub,2013-02-21 21:59:00,
2013-02-21 17:05:00,20.8,11.3,30.16,NNW,329,2.0,15.0,66,0.00,,,0.00,21.0,meteohub,2013-02-21 22:05:00,
2013-02-21 17:10:00,20.8,11.3,30.17,WNW,302,7.0,15.0,66,0.00,,,0.00,21.0,meteohub,2013-02-21 22:10:00,
2013-02-21 17:15:00,20.8,11.7,30.17,NW,324,5.0,15.0,67,0.00,,,0.00,28.0,meteohub,2013-02-21 22:15:00,
2013-02-21 17:21:00,20.7,11.5,30.17,North,355,3.0,15.0,67,0.00,,,0.00,14.0,meteohub,2013-02-21 22:21:00,
2013-02-21 17:26:00,20.7,11.5,30.18,North,10,2.0,17.0,67,0.00,,,0.00,7.0,meteohub,2013-02-21 22:26:00,
2013-02-21 17:31:00,20.7,11.5,30.18,WSW,258,4.0,17.0,67,0.00,,,0.00,5.0,meteohub,2013-02-21 22:31:00,
2013-02-21 17:37:00,20.7,11.5,30.18,SSW,210,2.0,17.0,67,0.00,,,0.00,0.0,meteohub,2013-02-21 22:37:00,
2013-02-21 17:42:00,20.5,11.7,30.18,NNW,331,2.0,17.0,68,0.00,,,0.00,0.0,meteohub,2013-02-21 22:42:00,
2013-02-21 17:47:00,20.5,11.7,30.19,North,355,0.0,13.0,68,0.00,,,0.00,0.0,meteohub,2013-02-21 22:47:00,
2013-02-21 17:52:00,20.5,11.7,30.19,West,271,1.0,13.0,68,0.00,,,0.00,0.0,meteohub,2013-02-21 22:52:00,
2013-02-21 17:57:00,20.3,11.5,30.20,North,355,5.0,16.0,68,0.00,,,0.00,0.0,meteohub,2013-02-21 22:57:00,
2013-02-21 18:02:00,20.3,11.5,30.20,NW,323,2.0,16.0,68,0.00,,,0.00,0.0,meteohub,2013-02-21 23:02:00,
2013-02-21 18:07:00,20.1,11.7,30.20,WNW,294,4.0,16.0,69,0.00,,,0.00,0.0,meteohub,2013-02-21 23:07:00,
2013-02-21 18:12:00,20.1,11.7,30.20,WSW,253,2.0,17.0,69,0.00,,,0.00,0.0,meteohub,2013-02-21 23:12:00,
2013-02-21 18:17:00,20.1,11.7,30.20,NW,309,4.0,17.0,69,0.00,,,0.00,0.0,meteohub,2013-02-21 23:17:00,
2013-02-21 18:22:00,20.1,11.7,30.20,WNW,290,6.0,13.0,69,0.00,,,0.00,0.0,meteohub,2013-02-21 23:22:00,
2013-02-21 18:27:00,19.9,11.5,30.21,NW,304,5.0,13.0,69,0.00,,,0.00,0.0,meteohub,2013-02-21 23:27:00,
2013-02-21 18:32:00,19.9,11.7,30.21,WNW,302,11.0,13.0,70,0.00,,,0.00,0.0,meteohub,2013-02-21 23:32:00,
2013-02-21 18:37:00,19.9,11.7,30.22,NW,315,1.0,14.0,70,0.00,,,0.00,0.0,meteohub,2013-02-21 23:37:00,
2013-02-21 18:42:00,19.9,11.7,30.22,West,274,2.0,14.0,70,0.00,,,0.00,0.0,meteohub,2013-02-21 23:42:00,
2013-02-21 18:48:00,20.1,11.8,30.22,NNW,330,7.0,12.0,70,0.00,,,0.00,0.0,meteohub,2013-02-21 23:48:00,
2013-02-21 18:53:00,20.1,11.8,30.22,West,271,2.0,12.0,70,0.00,,,0.00,0.0,meteohub,2013-02-21 23:53:00,
2013-02-21 18:58:00,20.1,11.8,30.23,West,278,2.0,13.0,70,0.00,,,0.00,0.0,meteohub,2013-02-21 23:58:00,
2013-02-21 19:04:00,20.1,11.8,30.22,WNW,287,0.0,13.0,70,0.00,,,0.00,0.0,meteohub,2013-02-22 00:04:00,
2013-02-21 19:09:00,20.1,12.2,30.22,WNW,286,3.0,14.0,71,0.00,,,0.00,0.0,meteohub,2013-02-22 00:09:00,
2013-02-21 19:14:00,20.1,11.8,30.22,NW,306,5.0,14.0,70,0.00,,,0.00,0.0,meteohub,2013-02-22 00:14:00,
2013-02-21 19:20:00,20.1,11.8,30.22,WNW,289,3.0,16.0,70,0.00,,,0.00,0.0,meteohub,2013-02-22 00:20:00,
2013-02-21 19:25:00,20.1,11.8,30.23,SE,132,3.0,16.0,70,0.00,,,0.00,0.0,meteohub,2013-02-22 00:25:00,
2013-02-21 19:30:00,19.9,11.7,30.23,WNW,294,2.0,16.0,70,0.00,,,0.00,0.0,meteohub,2013-02-22 00:30:00,
2013-02-21 19:36:00,19.9,12.0,30.24,NNE,13,2.0,12.0,71,0.00,,,0.00,0.0,meteohub,2013-02-22 00:36:00,
2013-02-21 19:41:00,19.9,12.0,30.24,NW,323,2.0,12.0,71,0.00,,,0.00,0.0,meteohub,2013-02-22 00:41:00,
2013-02-21 19:46:00,19.9,12.0,30.24,WNW,302,1.0,14.0,71,0.00,,,0.00,0.0,meteohub,2013-02-22 00:46:00,
2013-02-21 19:51:00,19.9,12.0,30.24,WNW,282,1.0,14.0,71,0.00,,,0.00,0.0,meteohub,2013-02-22 00:51:00,
2013-02-21 19:57:00,19.9,12.0,30.25,NW,316,1.0,14.0,71,0.00,,,0.00,0.0,meteohub,2013-02-22 00:57:00,
2013-02-21 20:02:00,19.9,12.4,30.26,WSW,246,3.0,14.0,72,0.00,,,0.00,0.0,meteohub,2013-02-22 01:02:00,
2013-02-21 20:07:00,19.9,12.0,30.27,NW,310,3.0,14.0,71,0.00,,,0.00,0.0,meteohub,2013-02-22 01:07:00,
2013-02-21 20:12:00,19.9,12.0,30.28,WNW,295,2.0,7.0,71,0.00,,,0.00,0.0,meteohub,2013-02-22 01:12:00,
2013-02-21 20:17:00,20.1,12.2,30.28,WNW,292,0.0,7.0,71,0.00,,,0.00,0.0,meteohub,2013-02-22 01:17:00,
2013-02-21 20:22:00,20.1,12.6,30.29,WNW,290,0.0,7.0,72,0.00,,,0.00,0.0,meteohub,2013-02-22 01:22:00,
2013-02-21 20:27:00,20.1,12.6,30.30,North,355,2.0,7.0,72,0.00,,,0.00,0.0,meteohub,2013-02-22 01:27:00,
2013-02-21 20:32:00,20.3,12.7,30.31,WNW,285,0.0,7.0,72,0.00,,,0.00,0.0,meteohub,2013-02-22 01:32:00,
2013-02-21 20:37:00,20.5,12.6,30.30,WNW,286,3.0,12.0,71,0.00,,,0.00,0.0,meteohub,2013-02-22 01:37:00,
2013-02-21 20:42:00,20.5,12.6,30.31,West,274,3.0,12.0,71,0.00,,,0.00,0.0,meteohub,2013-02-22 01:42:00,
2013-02-21 20:47:00,20.5,12.6,30.31,NE,47,1.0,14.0,71,0.00,,,0.00,0.0,meteohub,2013-02-22 01:47:00,
2013-02-21 20:52:00,20.5,12.6,30.31,West,274,0.0,14.0,71,0.00,,,0.00,0.0,meteohub,2013-02-22 01:52:00,
2013-02-21 20:57:00,20.5,12.6,30.31,West,280,4.0,14.0,71,0.00,,,0.00,0.0,meteohub,2013-02-22 01:57:00,
2013-02-21 21:02:00,20.5,12.6,30.31,NNW,344,6.0,14.0,71,0.00,,,0.00,0.0,meteohub,2013-02-22 02:02:00,
2013-02-21 21:07:00,20.5,12.6,30.32,WNW,290,1.0,14.0,71,0.00,,,0.00,0.0,meteohub,2013-02-22 02:07:00,
2013-02-21 21:12:00,20.5,12.9,30.33,WSW,254,2.0,15.0,72,0.00,,,0.00,0.0,meteohub,2013-02-22 02:12:00,
2013-02-21 21:17:00,20.5,12.9,30.33,WNW,296,0.0,15.0,72,0.00,,,0.00,0.0,meteohub,2013-02-22 02:17:00,
2013-02-21 21:22:00,20.5,12.9,30.33,WNW,298,3.0,13.0,72,0.00,,,0.00,0.0,meteohub,2013-02-22 02:22:00,
2013-02-21 21:27:00,20.5,12.9,30.33,NW,318,3.0,13.0,72,0.00,,,0.00,0.0,meteohub,2013-02-22 02:27:00,
2013-02-21 21:32:00,20.5,13.3,30.33,West,279,1.0,13.0,73,0.00,,,0.00,0.0,meteohub,2013-02-22 02:32:00,
2013-02-21 21:37:00,20.5,13.3,30.33,WNW,298,4.0,13.0,73,0.00,,,0.00,0.0,meteohub,2013-02-22 02:37:00,
2013-02-21 21:43:00,20.5,13.3,30.34,WNW,291,2.0,11.0,73,0.00,,,0.00,0.0,meteohub,2013-02-22 02:43:00,
2013-02-21 21:48:00,20.7,13.6,30.35,WSW,247,4.0,9.0,74,0.00,,,0.00,0.0,meteohub,2013-02-22 02:48:00,
2013-02-21 21:53:00,20.7,13.6,30.34,WNW,296,6.0,9.0,74,0.00,,,0.00,0.0,meteohub,2013-02-22 02:53:00,
2013-02-21 21:59:00,20.7,13.6,30.34,West,279,6.0,13.0,74,0.00,,,0.00,0.0,meteohub,2013-02-22 02:59:00,
2013-02-21 22:04:00,20.7,13.6,30.35,NNW,333,5.0,13.0,74,0.00,,,0.00,0.0,meteohub,2013-02-22 03:04:00,
2013-02-21 22:09:00,20.7,13.6,30.36,NW,319,1.0,13.0,74,0.00,,,0.00,0.0,meteohub,2013-02-22 03:09:00,
2013-02-21 22:15:00,20.8,13.8,30.36,NW,310,11.0,13.0,74,0.00,,,0.00,0.0,meteohub,2013-02-22 03:15:00,
2013-02-21 22:20:00,20.8,13.8,30.36,NW,312,5.0,14.0,74,0.00,,,0.00,0.0,meteohub,2013-02-22 03:20:00,
2013-02-21 22:25:00,20.8,13.8,30.37,NW,306,7.0,14.0,74,0.00,,,0.00,0.0,meteohub,2013-02-22 03:25:00,
2013-02-21 22:30:00,21.0,14.0,30.37,West,278,2.0,16.0,74,0.00,,,0.00,0.0,meteohub,2013-02-22 03:30:00,
2013-02-21 22:36:00,21.0,14.0,30.38,NW,307,3.0,16.0,74,0.00,,,0.00,0.0,meteohub,2013-02-22 03:36:00,
2013-02-21 22:41:00,21.0,14.4,30.38,NW,320,3.0,16.0,75,0.00,,,0.00,0.0,meteohub,2013-02-22 03:41:00,
2013-02-21 22:46:00,21.2,14.5,30.38,WNW,297,2.0,11.0,75,0.00,,,0.00,0.0,meteohub,2013-02-22 03:46:00,
2013-02-21 22:52:00,21.4,14.7,30.37,NW,317,0.0,11.0,75,0.00,,,0.00,0.0,meteohub,2013-02-22 03:52:00,
2013-02-21 22:57:00,21.4,14.7,30.38,NW,306,3.0,11.0,75,0.00,,,0.00,0.0,meteohub,2013-02-22 03:57:00,
2013-02-21 23:02:00,21.4,14.7,30.38,WNW,292,1.0,11.0,75,0.00,,,0.00,0.0,meteohub,2013-02-22 04:02:00,
2013-02-21 23:07:00,21.6,14.9,30.38,WNW,297,1.0,11.0,75,0.00,,,0.00,0.0,meteohub,2013-02-22 04:07:00,
2013-02-21 23:12:00,21.6,14.9,30.38,WNW,291,6.0,11.0,75,0.00,,,0.00,0.0,meteohub,2013-02-22 04:12:00,
2013-02-21 23:17:00,21.6,15.3,30.38,NW,311,4.0,11.0,76,0.00,,,0.00,0.0,meteohub,2013-02-22 04:17:00,
2013-02-21 23:22:00,21.6,15.3,30.38,NW,304,2.0,12.0,76,0.00,,,0.00,0.0,meteohub,2013-02-22 04:22:00,
2013-02-21 23:27:00,21.6,15.3,30.39,North,0,0.0,12.0,76,0.00,,,0.00,0.0,meteohub,2013-02-22 04:27:00,
2013-02-21 23:32:00,21.7,15.3,30.39,West,267,3.0,12.0,76,0.00,,,0.00,0.0,meteohub,2013-02-22 04:32:00,
2013-02-21 23:37:00,21.7,15.3,30.39,West,261,6.0,9.0,76,0.00,,,0.00,0.0,meteohub,2013-02-22 04:37:00,
2013-02-21 23:42:00,21.7,15.3,30.39,WNW,302,3.0,9.0,76,0.00,,,0.00,0.0,meteohub,2013-02-22 04:42:00,
2013-02-21 23:47:00,21.7,15.3,30.39,WNW,300,1.0,9.0,76,0.00,,,0.00,0.0,meteohub,2013-02-22 04:47:00,
2013-02-21 23:52:00,21.9,15.4,30.40,NNW,331,0.0,9.0,76,0.00,,,0.00,0.0,meteohub,2013-02-22 04:52:00,
2013-02-21 23:57:00,21.9,15.4,30.40,WNW,296,6.0,14.0,76,0.00,,,0.00,0.0,meteohub,2013-02-22 04:57:00,